Regional Weather Roundup
Issued by NWS Cleveland, OH

Home | Current Version | Previous Version | Graphics & Text | Print | Product List | Glossary On
Versions: 1 2 3 4 5 6 7 8 9 10 11 12 13 14 15 16 17 18 19 20 21 22 23 24 25 26 27 28 29 30 31 32 33 34 35 36 37 38 39 40 41 42 43 44 45 46 47 48 49 50
000
ASUS41 KCLE 010800
RWRCLE
OHIO REGIONAL WEATHER ROUNDUP
NATIONAL WEATHER SERVICE WILMINGTON, OH
300 AM EST SUN MAR 01 2015

NOTE: "FAIR" INDICATES FEW OR NO CLOUDS BELOW 12,000 FEET WITH NO
SIGNIFICANT WEATHER AND/OR OBSTRUCTIONS TO VISIBILITY.

OHZ001>008-015>018-024>027-034-035-043-044-010900-
   NORTHWEST OHIO

CITY           SKY/WX    TMP DP  RH WIND       PRES   REMARKS
DEFIANCE       LGT SNOW  17  13  84 CALM      30.45F VSB 1
FINDLAY        LGT SNOW  19  16  88 E5        30.41F VSB 1   WCI  12
TOLEDO EXPRESS LGT SNOW  15  13  91 NE3       30.45F FOG
TOLEDO EXEC    LGT SNOW  17  13  84 CALM      30.46F FOG
LIMA           LGT SNOW  22  18  85 CALM      30.40F VSB 1
$$

OHZ009>014-019>023-028>033-038-089-010900-
   NORTHEAST OHIO

CITY           SKY/WX    TMP DP  RH WIND       PRES   REMARKS
CLE-HOPKINS    LGT SNOW  20  17  88 SE6       30.49F FOG     WCI  12
CLE-LAKEFRONT  LGT SNOW  21  17  84 CALM      30.47F FOG
CUY CO. ARPT   NOT AVBL
LORAIN-ELYRIA  LGT SNOW  17  14  88 SE3       30.46F FOG
ASHTABULA      LGT SNOW  17  13  84 S6        30.48F FOG     WCI   9
AKRON-CANTON   LGT SNOW  20  15  81 SE7       30.43F VSB 3/4 WCI  11
WOOSTER        NOT AVBL
MANSFIELD      LGT SNOW  20  18  92 S10       30.40F VSB 3/4 WCI   9
YOUNGSTOWN     LGT SNOW  17  14  88 E8        30.45F VSB 3/4 WCI   7
$$

OHZ042-051>053-060>062-070>072-077>081-010900-
  SOUTHWEST OHIO

CITY           SKY/WX    TMP DP  RH WIND       PRES   REMARKS
CINC-COVINGTON LGT SNOW  26  22  84 E5        30.41F FOG     WCI  20
CINC-LUNKEN    FRZ RAIN  24  22  91 CALM      30.45F FOG
HAMILTON       LGT SNOW  25  22  88 VRB3      30.43F FOG
DAYTON         LGT SNOW  25  21  86 SE6       30.40F VSB 1   WCI  18
WRIGHT-PAT AFB NOT AVBL
DAYTON GENERAL LGT SNOW  25  22  88 S12       30.39F FOG     WCI  14
WILMINGTON     LGT SNOW  22  19  89 SE9       30.41F FOG     WCI  12
$$

OHZ036-037-039>041-045>050-054>059-063>069-073>076-082>088-010900-
  CENTRAL AND SOUTHEAST OHIO

CITY           SKY/WX    TMP DP  RH WIND       PRES   REMARKS
COLUMBUS       LGT SNOW  23  20  88 SE5       30.44F VSB 1   WCI  17
OSU AIRPORT    LGT SNOW  24  21  88 SE8       30.42F VSB 1   WCI  15
BOLTON FIELD   NOT AVBL
RICKENBACK AFB NOT AVBL
NEWARK         LGT SNOW  23  20  88 CALM      30.44F FOG
MARION         LGT SNOW  21  18  88 S7        30.41F VSB 1   WCI  12
LANCASTER      LGT SNOW  23  20  88 SE6       30.45F FOG     WCI  16
ZANESVILLE     LGT SNOW  21  18  88 SE3       30.46F FOG
NEW PHILLY     LGT SNOW  22  17  81 SE5       30.47F VSB 3/4 WCI  16
$$



USA.gov is the U.S. government's official web portal to all federal, state and local government web resources and services.